SCP
0 0 0 0 0 0 0 0 0 0 0 0 0 0 0 0 0 0 0 0 0 0 0 0 0 0 0 0 0 0 0 0 0 0 0 0 0 0 0 0 0 0 0 0
0 0 0 0 0 0 0 0 0 0 0 0 0 0 0 0 0 0 0 0 0 0 0 0 0 0 0 0 0 0 0 0 0 0 0 0 0 0 0 0 0 0 0 0
0 0 0 0 0 0 0 0 0 0 0 0 0 0 0 0 0 0 0 0 0 0 0 0 0 0 0 0 0 0 0 0 0 0 0 0 0 0 0 0 0 0 0 0
0 0 0 0 0 0 0 0 0 0 0 0 0 0 0 0 0 0 0 0 0 0 0 0 0 0 0 0 0 0 0 0 0 0 0 0 0 0 0 0 0 0 0 0
0 0 0 0 0 0 0 0 0 0 0 0 0 0 0 0 0 0 0 0 0 0 0 0 0 0 0 0 0 0 0 0 0 0 0 0 0 0 0 0 0 0 0 0
0 0 0 0 0 0 0 0 0 0 0 0 0 0 0 0 0 0 0 0 0 0 0 0 0 0 0 0 0 0 0 0 0 0 0 0 0 0 0 0 0 0 0 0
0 0 0 0 0 0 0 0 0 0 0 0 0 0 0 0 0 0 0 0 0 0 0 0 0 0 0 0 0 0 0 0 0 0 0 0 0 0 0 0 0 0 0 0
0 0 0 0 0 0 0 0 0 0 0 0 0 0 0 0 0 0 0 0 0 0 0 0 0 0 0 0 0 0 0 0 0 0 0 0 0 0 0 0 0 0 0 0
0 0 0 0 0 0 0 0 0 0 0 0 0 0 0 0 0 0 0 0 0 0 0 0 -0 0 0 0 0 0 0 0 0 0 0 0 0 0 0 0 0 0 0 0
0 0 0 0 0 0 0 0 0 0 0 0 0 0 0 0 0 0 0 0 0 0 0 0 0 0 -0 0 0 0 0 0 0 0 0 0 0 0 0 0 0 0 0 0
0 0 0 0 0 0 0 0 0 0 0 0 0 0 0 0 0 0 0 0 0 0 0 0 0 0 -0 -0 0 0 0 0 0 0 0 0 0 0 0 0 0 0 0 0
0 0 0 0 0 0 0 0 0 0 0 0 0 0 0 0 0 0 0 0 0 0 0 0 0 0 -0 -0 0 0 0 0 0 0 0 0 0 0 0 0 0 0 0 0
0 0 0 0 0 0 0 0 0 0 0 0 0 0 0 0 0 0 0 0 0 0 0 0 0 0 0 0 0 0 0 0 0 0 0 0 0 0 0 0 0 0 0 0
-0 0 0 0 0 0 0 0 0 0 0 0 0 0 0 0 0 0 0 0 0 0 0 0 0 0 0 0 0 0 0 0 0 0 0 0 0 0 0 0 0 0 0 0
0 0 0 0 0 0 0 0 0 0 0 0 0 0 0 0 0 0 0 0 0 0 0 0 0 0 0 0 0 0 0 0 0 0 0 0 0 0 0 0 0 0 0 0
0 0 0 0 0 0 0 0 0 0 0 0 0 0 0 0 0 0 0 0 0 0 0 0 0 0 0 0 0 0 0 0 0 0 0 0 0 0 0 0 0 0 0 0
0 0 0 0 0 0 0 0 0 0 0 0 0 0 0 0 0 0 0 0 0 0 0 0 0 0 0 0 0 0 0 0 0 0 0 0 0 0 0 0 0 0 0 0
0 0 0 0 0 0 0 0 0 0 0 0 0 0 0 0 0 0 0 0 0 0 0 0 0 0 0 0 0 0 0 0 0 0 0 0 0 0 0 0 0 0 0 0
0 0 0 0 0 0 0 0 0 0 0 0 0 0 0 0 0 0 0 0 0 0 0 0 0 0 0 0 0 0 0 0 0 0 0 0 0 0 0 0 0 0 0 0
0 0 0 0 0 0 0 0 0 0 0 0 0 0 0 0 0 0 0 0 0 0 0 0 0 0 0 0 0 0 0 0 0 0 0 0 0 0 0 0 0 0 0 0
0 0 0 0 0 0 0 0 0 0 0 -0 0 0 0 0 0 0 0 0 0 0 0 0 0 0 0 0 0 0 0 0 0 0 0 0 0 0 0 0 0 0 0 0
0 0 0 0 0 0 0 0 0 0 0 0 0 0 0 0 0 0 0 0 0 0 0 0 0 0 0 0 0 0 0 0 0 0 0 0 0 0 0 0 0 0 0 0
0 0 0 0 0 0 0 0 0 0 0 0 0 0 0 0 0 0 0 0 0 0 0 0 0 0 0 0 0 0 0 0 0 0 0 0 0 0 0 0 0 0 0 0
0 0 0 0 0 0 0 0 0 0 0 0 0 0 0 0 0 0 0 0 0 0 0 0 0 0 0 0 0 0 0 0 0 0 0 0 0 0 0 0 0 0 0 0
0 0 0 0 0 0 0 0 0 0 0 0 0 0 0 0 0 0 0 0 0 0 0 0 0 0 0 0 0 0 0 0 0 0 0 0 0 0 0 0 0 0 0 0
0 0 0 0 0 0 0 0 0 0 0 0 0 0 0 0 0 0 0 0 0 0 0 0 0 0 0 0 0 0 0 0 0 0 0 0 0 0 0 0 0 0 0 0
0 0 0 0 0 0 0 0 0 0 0 0 0 0 0 0 0 0 0 0 0 0 0 0 0 0 0 0 0 0 0 0 0 0 0 0 0 0 0 0 0 0 0 0
Wind_Speed
1 2 5 6 8 11 11 9 8 7 7 8 9 9 9 8 8 8 7 7 7 7 5 4 3 3 2 2 2 3 3 4 4 4 5 5 6 6 6 7 8 7 7 7
1 1 2 4 7 11 13 11 9 6 7 7 6 5 6 8 9 9 9 8 8 7 6 5 4 3 3 2 2 3 3 4 4 4 5 5 5 6 7 7 7 7 8 8
1 0 2 7 12 14 10 9 11 13 10 3 5 9 10 10 10 10 9 8 9 8 7 6 5 4 3 3 3 3 3 4 4 4 5 5 6 6 7 6 7 8 8 8
2 1 7 9 4 8 10 10 9 8 7 8 8 7 7 7 10 9 9 9 9 8 7 6 5 4 4 4 4 4 3 4 4 4 5 5 5 6 6 5 6 6 7 7
3 3 8 8 4 6 7 8 11 12 8 7 5 3 2 4 7 8 8 8 8 7 7 6 6 5 5 4 4 4 4 3 3 4 4 5 5 5 4 4 5 5 4 5
3 3 6 5 2 3 4 6 6 11 10 8 9 6 6 5 5 6 7 8 8 7 6 7 6 6 6 5 4 4 4 3 3 4 4 4 4 4 3 4 4 3 3 3
3 4 8 6 1 4 3 7 4 5 9 9 9 6 4 7 6 6 7 8 9 8 7 7 7 7 7 6 5 4 4 4 4 4 4 4 3 3 3 3 3 2 2 2
5 6 9 3 4 5 6 3 2 1 5 7 5 5 6 7 7 8 8 8 9 8 7 6 7 8 7 6 5 5 5 4 4 4 3 3 3 3 2 3 2 1 1 1
7 9 6 4 6 5 3 1 0 2 3 6 5 5 5 5 7 8 8 9 8 8 8 7 7 8 8 7 6 6 5 5 4 4 3 4 4 3 2 2 2 2 2 1
4 6 6 5 4 2 3 3 1 2 3 4 5 5 5 5 6 7 8 9 8 9 9 9 8 8 7 7 8 7 6 6 5 4 4 3 3 3 3 3 3 2 2 2
5 5 4 3 4 3 2 2 3 2 2 3 4 4 5 5 7 8 8 8 9 10 10 10 9 9 8 8 9 8 7 6 5 5 4 4 3 3 3 3 4 4 3 3
6 4 4 6 5 3 4 4 4 4 2 1 2 3 4 5 6 7 8 8 9 10 10 10 10 10 9 9 10 9 7 6 5 4 4 4 3 1 3 4 4 5 6 5
5 4 3 4 3 2 3 4 4 3 3 2 1 2 3 3 4 5 7 9 11 11 11 10 10 10 10 10 10 10 8 7 5 5 5 5 4 4 3 3 4 5 5 6
5 2 3 2 2 1 1 2 3 3 1 0 1 1 2 2 3 4 7 8 9 9 9 10 10 11 10 11 11 10 8 9 8 6 5 5 5 4 4 3 3 3 4 7
5 3 4 2 1 0 1 2 2 2 1 1 1 1 2 3 4 5 5 5 5 7 8 9 10 10 9 11 11 10 8 6 6 5 5 5 5 4 4 4 3 3 2 4
4 3 2 1 2 1 1 1 2 1 0 1 2 3 3 4 4 4 4 4 5 7 8 8 9 8 9 10 10 8 7 11 9 6 5 5 4 4 4 4 4 3 4 3
3 3 3 3 2 2 1 1 1 1 1 2 3 4 4 3 3 3 4 4 5 5 6 7 7 6 8 10 10 7 6 8 12 7 6 5 5 5 4 4 4 4 4 5
4 3 3 3 2 2 1 0 0 1 1 2 4 3 3 3 4 4 4 3 2 3 3 4 5 6 7 8 8 6 6 6 6 6 5 5 5 4 4 4 5 5 4 4
5 4 2 2 1 0 0 1 1 2 2 3 3 3 3 3 3 3 2 2 3 4 4 3 7 7 7 8 8 6 6 7 6 5 5 7 6 4 4 4 4 4 4 4
5 4 4 4 3 2 2 2 3 2 3 3 3 2 3 3 3 3 2 2 3 2 2 3 4 5 6 7 10 5 6 7 7 6 5 5 5 5 5 5 5 5 5 4
5 5 4 4 3 3 3 3 3 3 3 4 3 3 3 3 3 2 2 2 2 2 2 4 3 3 4 6 10 5 6 6 6 6 6 6 5 5 5 5 5 5 5 4
4 4 4 3 3 3 3 3 3 3 3 3 3 3 3 3 3 3 2 2 3 3 1 1 2 4 6 8 5 6 6 6 6 6 6 6 6 6 6 6 5 5 4 4
3 3 3 3 3 2 2 2 3 3 3 3 3 3 3 3 2 2 3 3 3 4 2 2 4 7 9 6 5 5 6 7 6 6 6 6 6 6 5 5 5 5 4 4
3 3 3 3 3 2 2 3 3 3 3 3 3 3 3 3 2 2 2 6 6 5 2 3 5 7 8 4 5 5 6 6 6 5 5 5 5 5 5 5 5 4 5 5
4 4 3 3 3 3 3 3 3 2 3 2 3 3 2 2 2 3 3 4 6 5 2 3 5 6 3 3 5 5 5 5 5 5 5 5 5 5 5 5 5 5 4 5
5 4 4 4 4 3 2 2 2 2 2 2 2 2 2 2 3 3 3 3 4 5 2 2 2 2 2 3 4 5 5 5 6 6 5 5 5 5 5 5 6 5 5 5
5 4 4 4 4 4 3 3 3 3 2 2 3 2 3 3 3 3 3 3 3 3 2 2 2 1 2 2 3 4 4 4 4 4 5 5 5 5 5 6 5 4 4 4
Wind_Direction
234 170 161 192 197 195 200 201 198 220 221 229 208 189 182 176 168 165 170 172 171 166 163 155 143 132 115 84 68 71 70 63 54 48 45 46 48 48 49 52 54 51 51 48
334 222 186 233 221 210 215 214 220 234 247 241 207 180 176 177 175 181 187 183 174 167 164 163 157 147 131 108 90 82 78 70 63 60 57 54 54 55 57 57 55 54 53 52
260 332 27 261 223 210 210 208 200 221 228 214 177 185 187 187 188 192 190 180 174 170 167 164 162 153 141 124 105 90 82 75 72 70 66 61 64 61 57 57 58 57 53 52
150 104 241 244 228 202 215 227 208 215 205 198 200 195 190 185 189 194 182 173 169 163 159 158 156 146 132 122 115 107 95 83 81 82 80 76 73 69 64 62 63 63 55 48
161 231 274 284 245 180 193 247 217 213 207 202 184 128 235 213 191 186 175 163 160 159 155 155 156 148 134 129 128 120 108 97 91 94 94 91 85 79 74 77 71 63 57 50
189 232 253 267 284 168 136 268 240 206 197 176 151 174 227 196 164 151 144 145 149 148 145 156 160 148 142 146 144 139 130 119 112 110 111 108 103 96 89 92 89 79 61 41
203 247 267 261 236 114 173 255 293 201 185 170 178 191 182 149 146 147 145 148 150 153 160 168 160 152 154 159 162 153 139 132 129 129 131 129 120 115 117 110 103 91 72 15
185 218 255 249 149 187 225 277 343 136 156 155 155 135 137 149 153 155 154 155 158 162 170 170 164 161 165 175 167 152 148 149 153 156 157 148 141 138 135 133 126 130 130 323
198 219 242 219 209 230 203 193 22 103 124 130 132 150 159 167 169 171 170 170 168 169 171 177 178 175 178 181 167 160 160 168 172 174 173 165 166 170 169 171 175 196 205 228
248 262 261 252 242 240 201 186 161 130 130 135 149 168 177 180 183 184 182 180 175 173 182 190 191 189 186 172 168 167 174 178 177 172 170 170 175 174 173 181 189 201 209 223
254 274 300 280 239 228 216 161 136 119 128 148 158 177 188 194 196 195 192 187 184 189 195 197 191 194 187 175 171 175 179 181 180 177 168 168 171 184 182 200 196 195 206 206
238 240 230 255 252 221 197 195 177 160 149 130 163 197 200 208 205 199 196 190 193 199 201 198 194 197 190 181 177 177 181 184 182 175 173 170 165 173 216 207 211 203 201 203
264 285 263 275 291 224 189 189 169 162 166 175 217 222 221 223 214 204 201 198 202 204 204 198 196 199 193 184 182 184 185 184 180 178 177 178 179 181 203 244 248 243 239 239
297 293 274 252 258 279 168 151 132 118 112 148 241 259 245 242 231 218 217 213 209 204 201 198 199 202 191 183 184 188 185 187 184 184 184 185 189 192 195 208 234 258 261 257
297 289 259 254 202 205 134 129 121 114 71 6 350 315 284 265 257 251 241 220 203 203 203 199 203 202 183 182 185 186 184 185 184 181 183 186 187 189 197 209 218 232 250 270
304 328 320 247 201 194 158 162 160 171 294 305 307 298 287 276 270 269 256 209 196 209 208 204 208 196 179 181 182 183 186 188 180 179 181 183 185 191 199 207 218 226 234 241
274 274 268 261 234 207 191 206 199 222 288 300 300 298 292 288 283 277 268 240 224 222 212 208 207 183 178 181 181 181 179 184 184 182 186 188 190 197 201 204 216 227 235 240
301 285 269 255 223 185 175 190 23 3 339 321 314 309 298 282 274 276 273 264 245 248 235 217 196 178 181 181 179 175 176 178 181 185 187 191 194 196 198 208 219 230 238 251
348 352 0 16 12 177 165 42 4 359 355 339 327 317 305 299 296 292 282 236 229 247 252 222 196 182 183 185 176 173 176 180 183 184 183 200 202 197 202 210 220 226 232 237
355 360 10 17 20 29 34 20 13 13 359 349 343 346 345 337 328 316 291 255 247 251 238 203 189 183 184 186 182 177 180 183 186 185 187 194 198 203 209 217 222 227 230 234
353 358 5 12 20 29 23 11 9 7 2 6 6 353 335 332 338 335 316 292 300 295 246 208 188 182 181 187 188 181 183 186 187 189 194 199 203 209 215 220 225 228 229 233
344 350 355 358 1 9 8 6 5 5 7 6 360 350 344 340 338 331 306 293 309 306 281 215 196 198 198 194 187 183 187 189 190 192 196 199 203 212 218 219 223 227 228 231
326 331 334 336 333 326 340 360 358 354 350 345 343 345 341 329 323 325 321 327 319 309 296 234 228 221 214 198 185 188 191 195 197 199 201 203 208 213 216 218 219 222 226 230
280 292 301 311 315 312 318 328 333 331 328 326 333 338 335 330 325 318 303 315 323 318 292 264 254 239 222 189 183 191 197 201 203 203 205 207 211 212 214 216 220 222 226 233
252 260 263 270 275 273 278 292 303 312 321 319 326 332 332 313 300 304 310 313 320 324 305 282 275 258 224 185 189 195 198 204 205 203 206 210 213 214 216 217 219 223 226 231
239 242 244 242 245 250 253 259 268 280 293 301 307 308 316 316 315 314 314 317 321 324 315 287 284 268 220 201 199 201 203 214 223 217 208 211 216 215 217 220 224 224 228 232
241 241 244 250 245 232 228 232 245 259 265 274 286 294 305 313 318 322 325 324 325 324 311 295 284 267 242 223 215 212 210 210 212 214 212 212 214 217 220 221 222 224 227 232